Location: Niedergestelen
(46.3129°N, 7.7822°E)
Time: 19:26:10
(UTC+00:00)

Cosmos 1943 Rocket - Visible Passes

Search period start: 11 April 2021 00:00
Search period end: 21 April 2021 00:00
Orbit: 811 x 844 km, 71.0° (Epoch: 11 April)

Date Brightness Start Highest point End Pass type
(mag) Time Alt. Az. Time Alt. Az. Time Alt. Az.
11 Apr 5.0 02:58:33 10° ESE 03:00:36 12° E 03:02:39 10° ENE visible
12 Apr 5.2 02:40:51 10° E 02:41:30 10° E 02:42:09 10° E visible
13 Apr 2.7 03:59:23 10° S 04:04:57 62° ESE 04:10:33 10° NNE visible
14 Apr 2.9 03:40:15 10° S 03:45:46 55° ESE 03:51:17 10° NE visible
15 Apr 3.1 03:21:09 10° S 03:26:34 49° ESE 03:32:00 10° NE visible
16 Apr 3.2 03:02:05 10° S 03:07:23 43° ESE 03:12:42 10° NE visible
17 Apr 3.4 02:43:03 10° S 02:48:13 38° ESE 02:53:23 10° NE visible
18 Apr 3.6 02:24:37 13° SSE 02:29:02 34° ESE 02:34:04 10° NE visible
19 Apr 3.7 02:06:13 15° SSE 02:09:53 30° ESE 02:14:43 10° NE visible
19 Apr 2.6 03:47:56 10° SW 03:53:24 47° WNW 03:58:52 10° NNE visible
20 Apr 3.8 01:47:43 17° SE 01:50:43 26° ESE 01:55:20 10° NE visible
20 Apr 2.5 03:29:16 13° SW 03:34:08 53° WNW 03:39:41 10° NNE visible
